Time,TemperatureF,DewpointF,PressureIn,WindDirection,WindDirectionDegrees,WindSpeedMPH,WindSpeedGustMPH,Humidity,HourlyPrecipIn,Conditions,Clouds,dailyrainin,SoftwareType,DateUTC
2013-04-23 00:00:00,72.5,23.7,29.79,WNW,293,6.0,10.1,16,0.00,,,-99.99,FreeWX-Wi 1.02,2013-04-23 07:00:00,
2013-04-23 00:05:00,72.5,23.7,29.79,WNW,293,6.0,13.2,16,0.00,,,-99.99,FreeWX-Wi 1.02,2013-04-23 07:05:00,
2013-04-23 00:10:00,72.3,23.5,29.79,WNW,295,6.0,12.8,16,0.00,,,-99.99,FreeWX-Wi 1.02,2013-04-23 07:10:00,
2013-04-23 00:15:00,72.0,23.4,29.79,WNW,293,6.0,11.0,16,0.00,,,-99.99,FreeWX-Wi 1.02,2013-04-23 07:15:00,
2013-04-23 00:20:00,72.0,23.4,29.79,WNW,293,6.0,10.5,16,0.00,,,-99.99,FreeWX-Wi 1.02,2013-04-23 07:20:00,
2013-04-23 00:25:00,72.0,23.4,29.79,WNW,294,6.0,9.6,16,0.00,,,-99.99,FreeWX-Wi 1.02,2013-04-23 07:25:00,
2013-04-23 00:30:00,72.0,23.4,29.79,WNW,295,6.0,12.3,16,0.00,,,-99.99,FreeWX-Wi 1.02,2013-04-23 07:30:00,
2013-04-23 00:35:00,72.1,23.5,29.79,WNW,300,5.0,9.6,16,0.00,,,-99.99,FreeWX-Wi 1.02,2013-04-23 07:35:00,
2013-04-23 00:40:00,72.3,23.5,29.79,WNW,302,5.0,14.1,16,0.00,,,-99.99,FreeWX-Wi 1.02,2013-04-23 07:40:00,
2013-04-23 00:45:00,72.0,23.4,29.79,WNW,299,5.0,8.3,16,0.00,,,-99.99,FreeWX-Wi 1.02,2013-04-23 07:45:00,
2013-04-23 00:50:00,71.6,23.0,29.79,WNW,297,5.0,12.8,16,0.00,,,-99.99,FreeWX-Wi 1.02,2013-04-23 07:50:00,
2013-04-23 00:55:00,71.4,24.3,29.79,WNW,291,6.0,13.2,17,0.00,,,-99.99,FreeWX-Wi 1.02,2013-04-23 07:55:00,
2013-04-23 01:00:00,71.6,23.0,29.79,WNW,288,6.0,12.8,16,0.00,,,-99.99,FreeWX-Wi 1.02,2013-04-23 08:00:00,
2013-04-23 01:05:00,71.6,23.0,29.79,WNW,287,5.0,12.8,16,0.00,,,-99.99,FreeWX-Wi 1.02,2013-04-23 08:05:00,
2013-04-23 01:10:00,71.4,24.3,29.79,WNW,292,5.0,8.3,17,0.00,,,-99.99,FreeWX-Wi 1.02,2013-04-23 08:10:00,
2013-04-23 01:15:00,71.2,24.3,29.79,WNW,303,5.0,9.2,17,0.00,,,-99.99,FreeWX-Wi 1.02,2013-04-23 08:15:00,
2013-04-23 01:20:00,71.2,24.3,29.79,NW,313,4.0,9.2,17,0.00,,,-99.99,FreeWX-Wi 1.02,2013-04-23 08:20:00,
2013-04-23 01:25:00,71.1,24.1,29.79,NW,318,4.0,12.3,17,0.00,,,-99.99,FreeWX-Wi 1.02,2013-04-23 08:25:00,
2013-04-23 01:30:00,70.9,23.9,29.79,NW,318,4.0,10.5,17,0.00,,,-99.99,FreeWX-Wi 1.02,2013-04-23 08:30:00,
2013-04-23 01:35:00,70.9,23.9,29.79,NW,318,4.0,8.1,17,0.00,,,-99.99,FreeWX-Wi 1.02,2013-04-23 08:35:00,
2013-04-23 01:40:00,71.1,24.1,29.79,NW,317,4.0,8.7,17,0.00,,,-99.99,FreeWX-Wi 1.02,2013-04-23 08:40:00,
2013-04-23 01:45:00,71.1,24.1,29.79,NW,313,4.0,11.0,17,0.00,,,-99.99,FreeWX-Wi 1.02,2013-04-23 08:45:00,
2013-04-23 01:50:00,70.2,23.4,29.79,NW,304,5.0,8.7,17,0.00,,,-99.99,FreeWX-Wi 1.02,2013-04-23 08:50:00,
2013-04-23 01:55:00,69.3,22.6,29.79,WNW,297,5.0,10.5,17,0.00,,,-99.99,FreeWX-Wi 1.02,2013-04-23 08:55:00,
2013-04-23 02:00:00,68.0,21.6,29.79,WNW,290,5.0,11.0,17,0.00,,,-99.99,FreeWX-Wi 1.02,2013-04-23 09:00:00,
2013-04-23 02:05:00,67.3,21.0,29.79,WNW,285,5.0,8.1,17,0.00,,,-99.99,FreeWX-Wi 1.02,2013-04-23 09:05:00,
2013-04-23 02:10:00,66.4,20.3,29.79,West,275,5.0,12.3,17,0.00,,,-99.99,FreeWX-Wi 1.02,2013-04-23 09:10:00,
2013-04-23 02:15:00,65.7,21.0,29.79,West,271,5.0,11.0,18,0.00,,,-99.99,FreeWX-Wi 1.02,2013-04-23 09:15:00,
2013-04-23 02:20:00,65.1,20.5,29.79,West,270,6.0,11.0,18,0.00,,,-99.99,FreeWX-Wi 1.02,2013-04-23 09:20:00,
2013-04-23 02:25:00,64.9,20.5,29.79,West,271,6.0,12.8,18,0.00,,,-99.99,FreeWX-Wi 1.02,2013-04-23 09:25:00,
2013-04-23 02:30:00,64.9,20.5,29.79,West,269,6.0,11.9,18,0.00,,,-99.99,FreeWX-Wi 1.02,2013-04-23 09:30:00,
2013-04-23 02:35:00,64.6,20.1,29.79,West,264,6.0,9.6,18,0.00,,,-99.99,FreeWX-Wi 1.02,2013-04-23 09:35:00,
2013-04-23 02:40:00,64.2,19.8,29.79,West,265,6.0,7.6,18,0.00,,,-99.99,FreeWX-Wi 1.02,2013-04-23 09:40:00,
2013-04-23 02:45:00,64.0,19.8,29.79,West,265,5.0,5.8,18,0.00,,,-99.99,FreeWX-Wi 1.02,2013-04-23 09:45:00,
2013-04-23 02:50:00,63.9,19.6,29.79,West,266,5.0,7.6,18,0.00,,,-99.99,FreeWX-Wi 1.02,2013-04-23 09:50:00,
2013-04-23 02:55:00,63.5,19.2,29.79,West,265,5.0,10.1,18,0.00,,,-99.99,FreeWX-Wi 1.02,2013-04-23 09:55:00,
2013-04-23 03:00:00,63.1,19.0,29.79,West,267,4.0,8.3,18,0.00,,,-99.99,FreeWX-Wi 1.02,2013-04-23 10:00:00,
2013-04-23 03:05:00,63.1,19.0,29.79,West,266,4.0,10.1,18,0.00,,,-99.99,FreeWX-Wi 1.02,2013-04-23 10:05:00,
2013-04-23 03:10:00,63.0,18.9,29.79,West,271,4.0,5.4,18,0.00,,,-99.99,FreeWX-Wi 1.02,2013-04-23 10:10:00,
2013-04-23 03:15:00,62.6,18.5,29.79,West,273,4.0,4.9,18,0.00,,,-99.99,FreeWX-Wi 1.02,2013-04-23 10:15:00,
2013-04-23 03:20:00,62.4,19.6,29.79,West,276,4.0,6.3,19,0.00,,,-99.99,FreeWX-Wi 1.02,2013-04-23 10:20:00,
2013-04-23 03:25:00,62.2,19.4,29.79,West,276,4.0,8.7,19,0.00,,,-99.99,FreeWX-Wi 1.02,2013-04-23 10:25:00,
2013-04-23 03:30:00,62.2,19.4,29.79,WNW,282,3.0,5.8,19,0.00,,,-99.99,FreeWX-Wi 1.02,2013-04-23 10:30:00,
2013-04-23 03:35:00,61.9,19.2,29.79,WNW,288,3.0,5.4,19,0.00,,,-99.99,FreeWX-Wi 1.02,2013-04-23 10:35:00,
2013-04-23 03:40:00,61.7,21.4,29.79,WNW,287,3.0,5.8,21,0.00,,,-99.99,FreeWX-Wi 1.02,2013-04-23 10:40:00,
2013-04-23 03:45:00,61.9,21.6,29.79,WNW,285,3.0,8.1,21,0.00,,,-99.99,FreeWX-Wi 1.02,2013-04-23 10:45:00,
2013-04-23 03:50:00,61.7,21.4,29.79,WNW,291,3.0,7.6,21,0.00,,,-99.99,FreeWX-Wi 1.02,2013-04-23 10:50:00,
2013-04-23 03:55:00,61.7,24.6,29.79,WNW,294,3.0,6.3,24,0.00,,,-99.99,FreeWX-Wi 1.02,2013-04-23 10:55:00,
2013-04-23 04:00:00,61.3,24.3,29.79,WNW,287,3.0,8.7,24,0.00,,,-99.99,FreeWX-Wi 1.02,2013-04-23 11:00:00,
2013-04-23 04:05:00,61.2,24.1,29.79,West,281,3.0,10.5,24,0.00,,,-99.99,FreeWX-Wi 1.02,2013-04-23 11:05:00,
2013-04-23 04:10:00,60.8,23.7,29.79,WNW,282,3.0,8.7,24,0.00,,,-99.99,FreeWX-Wi 1.02,2013-04-23 11:10:00,
2013-04-23 04:15:00,60.6,24.6,29.79,West,280,4.0,8.1,25,0.00,,,-99.99,FreeWX-Wi 1.02,2013-04-23 11:15:00,
2013-04-23 04:20:00,60.4,24.4,29.79,West,278,4.0,6.7,25,0.00,,,-99.99,FreeWX-Wi 1.02,2013-04-23 11:20:00,
2013-04-23 04:25:00,60.1,25.2,29.79,West,280,4.0,7.6,26,0.00,,,-99.99,FreeWX-Wi 1.02,2013-04-23 11:25:00,
2013-04-23 04:30:00,59.7,24.8,29.79,WNW,283,3.0,5.4,26,0.00,,,-99.99,FreeWX-Wi 1.02,2013-04-23 11:30:00,
2013-04-23 04:35:00,59.5,24.6,29.82,WNW,288,3.0,8.3,26,0.00,,,-99.99,FreeWX-Wi 1.02,2013-04-23 11:35:00,
2013-04-23 04:40:00,59.4,24.4,29.82,WNW,289,3.0,6.3,26,0.00,,,-99.99,FreeWX-Wi 1.02,2013-04-23 11:40:00,
2013-04-23 04:45:00,59.2,24.3,29.82,WNW,288,2.0,5.8,26,0.00,,,-99.99,FreeWX-Wi 1.02,2013-04-23 11:45:00,
2013-04-23 04:50:00,58.8,25.0,29.82,WNW,287,2.0,3.1,27,0.00,,,-99.99,FreeWX-Wi 1.02,2013-04-23 11:50:00,
2013-04-23 04:55:00,58.8,25.0,29.82,WNW,285,2.0,4.0,27,0.00,,,-99.99,FreeWX-Wi 1.02,2013-04-23 11:55:00,
2013-04-23 05:00:00,58.8,25.0,29.82,WNW,283,1.0,0.0,27,0.00,,,-99.99,FreeWX-Wi 1.02,2013-04-23 12:00:00,
2013-04-23 05:05:00,58.5,24.6,29.82,North,-999,0.0,4.0,27,0.00,,,-99.99,FreeWX-Wi 1.02,2013-04-23 12:05:00,
2013-04-23 05:10:00,58.3,24.4,29.82,North,-999,0.0,0.0,27,0.00,,,-99.99,FreeWX-Wi 1.02,2013-04-23 12:10:00,
2013-04-23 05:15:00,58.1,25.2,29.82,North,-999,0.0,2.7,28,0.00,,,-99.99,FreeWX-Wi 1.02,2013-04-23 12:15:00,
2013-04-23 05:20:00,58.1,24.3,29.82,North,-999,0.0,3.6,27,0.00,,,-99.99,FreeWX-Wi 1.02,2013-04-23 12:20:00,
2013-04-23 05:25:00,58.1,25.2,29.82,North,-999,0.0,2.7,28,0.00,,,-99.99,FreeWX-Wi 1.02,2013-04-23 12:25:00,
2013-04-23 05:30:00,57.9,25.0,29.82,North,-999,0.0,2.7,28,0.00,,,-99.99,FreeWX-Wi 1.02,2013-04-23 12:30:00,
2013-04-23 05:35:00,57.9,25.0,29.82,North,-999,0.0,3.1,28,0.00,,,-99.99,FreeWX-Wi 1.02,2013-04-23 12:35:00,
2013-04-23 05:40:00,57.2,24.4,29.82,North,-999,0.0,2.2,28,0.00,,,-99.99,FreeWX-Wi 1.02,2013-04-23 12:40:00,
2013-04-23 05:45:00,57.2,25.2,29.82,North,-999,0.0,3.6,29,0.00,,,-99.99,FreeWX-Wi 1.02,2013-04-23 12:45:00,
2013-04-23 05:50:00,57.2,25.2,29.82,North,-999,0.0,4.9,29,0.00,,,-99.99,FreeWX-Wi 1.02,2013-04-23 12:50:00,
2013-04-23 05:55:00,57.0,25.2,29.82,North,-999,0.0,4.5,29,0.00,,,-99.99,FreeWX-Wi 1.02,2013-04-23 12:55:00,
2013-04-23 06:00:00,57.0,25.2,29.82,NNW,347,1.0,4.9,29,0.00,,,-99.99,FreeWX-Wi 1.02,2013-04-23 13:00:00,
2013-04-23 06:05:00,56.8,26.6,29.82,North,-999,0.0,0.0,31,0.00,,,-99.99,FreeWX-Wi 1.02,2013-04-23 13:05:00,
2013-04-23 06:10:00,56.8,26.6,29.82,NNE,33,1.0,3.6,31,0.00,,,-99.99,FreeWX-Wi 1.02,2013-04-23 13:10:00,
2013-04-23 06:15:00,56.8,25.7,29.82,NE,43,1.0,4.9,30,0.00,,,-99.99,FreeWX-Wi 1.02,2013-04-23 13:15:00,
2013-04-23 06:20:00,57.2,25.2,29.85,NE,47,1.0,6.3,29,0.00,,,-99.99,FreeWX-Wi 1.02,2013-04-23 13:20:00,
2013-04-23 06:25:00,57.4,25.3,29.85,NE,49,1.0,3.1,29,0.00,,,-99.99,FreeWX-Wi 1.02,2013-04-23 13:25:00,
2013-04-23 06:30:00,57.7,24.8,29.85,NE,50,1.0,5.4,28,0.00,,,-99.99,FreeWX-Wi 1.02,2013-04-23 13:30:00,
2013-04-23 06:35:00,57.7,24.1,29.85,NE,46,2.0,6.3,27,0.00,,,-99.99,FreeWX-Wi 1.02,2013-04-23 13:35:00,
2013-04-23 06:40:00,58.5,24.6,29.85,NE,36,2.0,5.4,27,0.00,,,-99.99,FreeWX-Wi 1.02,2013-04-23 13:40:00,
2013-04-23 06:45:00,58.6,23.9,29.85,NNE,21,2.0,4.0,26,0.00,,,-99.99,FreeWX-Wi 1.02,2013-04-23 13:45:00,
2013-04-23 06:50:00,59.4,23.5,29.85,North,6,1.0,0.0,25,0.00,,,-99.99,FreeWX-Wi 1.02,2013-04-23 13:50:00,
2013-04-23 06:55:00,60.1,23.2,29.85,North,358,1.0,5.8,24,0.00,,,-99.99,FreeWX-Wi 1.02,2013-04-23 13:55:00,
2013-04-23 07:00:00,61.7,19.0,29.85,North,351,1.0,9.2,19,0.00,,,-99.99,FreeWX-Wi 1.02,2013-04-23 14:00:00,
2013-04-23 07:05:00,67.1,20.8,29.88,North,354,2.0,8.7,17,0.00,,,-99.99,FreeWX-Wi 1.02,2013-04-23 14:05:00,
2013-04-23 07:10:00,68.5,21.9,29.88,North,7,2.0,8.1,17,0.00,,,-99.99,FreeWX-Wi 1.02,2013-04-23 14:10:00,
2013-04-23 07:15:00,71.8,23.2,29.88,North,10,3.0,13.2,16,0.00,,,-99.99,FreeWX-Wi 1.02,2013-04-23 14:15:00,
2013-04-23 07:20:00,72.1,23.5,29.88,NNE,31,4.0,12.8,16,0.00,,,-99.99,FreeWX-Wi 1.02,2013-04-23 14:20:00,
2013-04-23 07:25:00,73.2,24.3,29.88,NE,39,5.0,18.8,16,0.00,,,-99.99,FreeWX-Wi 1.02,2013-04-23 14:25:00,
2013-04-23 07:30:00,73.9,25.0,29.88,NE,48,7.0,16.8,16,0.00,,,-99.99,FreeWX-Wi 1.02,2013-04-23 14:30:00,
2013-04-23 07:35:00,74.3,25.2,29.88,NE,50,7.0,11.0,16,0.00,,,-99.99,FreeWX-Wi 1.02,2013-04-23 14:35:00,
2013-04-23 07:40:00,74.5,25.3,29.88,NE,49,8.0,11.0,16,0.00,,,-99.99,FreeWX-Wi 1.02,2013-04-23 14:40:00,
2013-04-23 07:45:00,74.7,25.5,29.88,NE,53,8.0,11.0,16,0.00,,,-99.99,FreeWX-Wi 1.02,2013-04-23 14:45:00,
2013-04-23 07:50:00,75.0,25.7,29.88,NE,50,8.0,9.2,16,0.00,,,-99.99,FreeWX-Wi 1.02,2013-04-23 14:50:00,
2013-04-23 07:55:00,75.4,24.4,29.88,NE,51,7.0,10.1,15,0.00,,,-99.99,FreeWX-Wi 1.02,2013-04-23 14:55:00,
2013-04-23 08:00:00,75.9,25.0,29.88,NE,50,7.0,15.4,15,0.00,,,-99.99,FreeWX-Wi 1.02,2013-04-23 15:00:00,
2013-04-23 08:05:00,76.1,25.2,29.91,NE,49,8.0,17.4,15,0.00,,,-99.99,FreeWX-Wi 1.02,2013-04-23 15:05:00,
2013-04-23 08:10:00,76.5,25.3,29.91,NE,43,9.0,17.4,15,0.00,,,-99.99,FreeWX-Wi 1.02,2013-04-23 15:10:00,
2013-04-23 08:15:00,76.8,25.7,29.91,NE,38,10.0,19.7,15,0.00,,,-99.99,FreeWX-Wi 1.02,2013-04-23 15:15:00,
2013-04-23 08:20:00,77.0,25.9,29.91,NE,37,10.0,16.3,15,0.00,,,-99.99,FreeWX-Wi 1.02,2013-04-23 15:20:00,
2013-04-23 08:25:00,77.2,25.9,29.91,NE,34,11.0,15.4,15,0.00,,,-99.99,FreeWX-Wi 1.02,2013-04-23 15:25:00,
2013-04-23 08:30:00,77.4,26.1,29.91,NE,34,11.0,22.8,15,0.00,,,-99.99,FreeWX-Wi 1.02,2013-04-23 15:30:00,
2013-04-23 08:35:00,77.7,26.4,29.91,NNE,29,12.0,24.2,15,0.00,,,-99.99,FreeWX-Wi 1.02,2013-04-23 15:35:00,
2013-04-23 08:40:00,77.9,26.6,29.91,NNE,27,12.0,17.4,15,0.00,,,-99.99,FreeWX-Wi 1.02,2013-04-23 15:40:00,
2013-04-23 08:45:00,78.1,26.6,29.91,NNE,25,12.0,17.0,15,0.00,,,-99.99,FreeWX-Wi 1.02,2013-04-23 15:45:00,
2013-04-23 08:50:00,78.1,26.6,29.91,NNE,23,13.0,18.8,15,0.00,,,-99.99,FreeWX-Wi 1.02,2013-04-23 15:50:00,
2013-04-23 08:55:00,78.3,26.8,29.91,NNE,22,13.0,19.2,15,0.00,,,-99.99,FreeWX-Wi 1.02,2013-04-23 15:55:00,
2013-04-23 09:00:00,78.8,27.3,29.91,NNE,23,13.0,17.9,15,0.00,,,-99.99,FreeWX-Wi 1.02,2013-04-23 16:00:00,
2013-04-23 09:05:00,79.0,27.3,29.91,NNE,22,13.0,24.6,15,0.00,,,-99.99,FreeWX-Wi 1.02,2013-04-23 16:05:00,
2013-04-23 09:10:00,78.8,27.3,29.91,NNE,25,14.0,28.0,15,0.00,,,-99.99,FreeWX-Wi 1.02,2013-04-23 16:10:00,
2013-04-23 09:15:00,78.8,27.3,29.91,NNE,27,15.0,24.2,15,0.00,,,-99.99,FreeWX-Wi 1.02,2013-04-23 16:15:00,
2013-04-23 09:20:00,79.2,27.5,29.91,NNE,26,14.0,19.7,15,0.00,,,-99.99,FreeWX-Wi 1.02,2013-04-23 16:20:00,
2013-04-23 09:25:00,80.1,28.2,29.91,NNE,27,14.0,17.4,15,0.00,,,-99.99,FreeWX-Wi 1.02,2013-04-23 16:25:00,
2013-04-23 09:30:00,79.7,28.0,29.91,NNE,27,14.0,17.0,15,0.00,,,-99.99,FreeWX-Wi 1.02,2013-04-23 16:30:00,
2013-04-23 09:35:00,79.7,28.0,29.94,NNE,27,14.0,21.5,15,0.00,,,-99.99,FreeWX-Wi 1.02,2013-04-23 16:35:00,
2013-04-23 09:40:00,79.9,28.0,29.94,NNE,25,13.0,20.6,15,0.00,,,-99.99,FreeWX-Wi 1.02,2013-04-23 16:40:00,
2013-04-23 09:45:00,79.7,28.0,29.94,NNE,25,13.0,27.5,15,0.00,,,-99.99,FreeWX-Wi 1.02,2013-04-23 16:45:00,
2013-04-23 09:50:00,80.4,28.6,29.94,NNE,25,13.0,21.9,15,0.00,,,-99.99,FreeWX-Wi 1.02,2013-04-23 16:50:00,
2013-04-23 09:55:00,79.9,28.0,29.94,NNE,23,14.0,23.7,15,0.00,,,-99.99,FreeWX-Wi 1.02,2013-04-23 16:55:00,
2013-04-23 10:00:00,80.6,27.0,29.94,NNE,24,14.0,17.9,14,0.00,,,-99.99,FreeWX-Wi 1.02,2013-04-23 17:00:00,
2013-04-23 10:05:00,81.1,27.5,29.94,NNE,25,14.0,15.4,14,0.00,,,-99.99,FreeWX-Wi 1.02,2013-04-23 17:05:00,
2013-04-23 10:10:00,80.4,28.6,29.94,NNE,24,14.0,24.6,15,0.00,,,-99.99,FreeWX-Wi 1.02,2013-04-23 17:10:00,
2013-04-23 10:15:00,81.1,27.5,29.94,NNE,23,13.0,16.8,14,0.00,,,-99.99,FreeWX-Wi 1.02,2013-04-23 17:15:00,
2013-04-23 10:20:00,81.7,27.9,29.94,NNE,23,13.0,17.9,14,0.00,,,-99.99,FreeWX-Wi 1.02,2013-04-23 17:20:00,
2013-04-23 10:25:00,81.9,28.0,29.94,NNE,24,12.0,15.9,14,0.00,,,-99.99,FreeWX-Wi 1.02,2013-04-23 17:25:00,
2013-04-23 10:30:00,81.9,28.0,29.94,NNE,23,13.0,22.8,14,0.00,,,-99.99,FreeWX-Wi 1.02,2013-04-23 17:30:00,
2013-04-23 10:35:00,82.8,28.8,29.94,NNE,21,12.0,15.9,14,0.00,,,-99.99,FreeWX-Wi 1.02,2013-04-23 17:35:00,
2013-04-23 10:40:00,82.8,28.8,29.94,NNE,24,12.0,21.9,14,0.00,,,-99.99,FreeWX-Wi 1.02,2013-04-23 17:40:00,
2013-04-23 10:45:00,82.4,28.4,29.94,NNE,21,12.0,15.0,14,0.00,,,-99.99,FreeWX-Wi 1.02,2013-04-23 17:45:00,
2013-04-23 10:50:00,82.8,28.8,29.97,NNE,20,12.0,16.8,14,0.00,,,-99.99,FreeWX-Wi 1.02,2013-04-23 17:50:00,
2013-04-23 10:55:00,83.1,28.9,29.97,NNE,20,12.0,15.0,14,0.00,,,-99.99,FreeWX-Wi 1.02,2013-04-23 17:55:00,
2013-04-23 11:00:00,84.7,28.4,29.97,NNE,23,11.0,15.0,13,0.00,,,-99.99,FreeWX-Wi 1.02,2013-04-23 18:00:00,
2013-04-23 11:05:00,84.7,28.4,29.97,NNE,24,11.0,15.4,13,0.00,,,-99.99,FreeWX-Wi 1.02,2013-04-23 18:05:00,
2013-04-23 11:10:00,84.9,28.6,29.97,NNE,27,10.0,17.0,13,0.00,,,-99.99,FreeWX-Wi 1.02,2013-04-23 18:10:00,
2013-04-23 11:15:00,85.6,29.1,29.97,NE,34,11.0,18.3,13,0.00,,,-99.99,FreeWX-Wi 1.02,2013-04-23 18:15:00,
2013-04-23 11:20:00,85.8,29.3,29.97,NE,39,10.0,17.0,13,0.00,,,-99.99,FreeWX-Wi 1.02,2013-04-23 18:20:00,
2013-04-23 11:25:00,86.4,29.7,29.97,NE,41,10.0,15.4,13,0.00,,,-99.99,FreeWX-Wi 1.02,2013-04-23 18:25:00,
2013-04-23 11:30:00,86.4,29.7,29.97,NE,44,10.0,15.4,13,0.00,,,-99.99,FreeWX-Wi 1.02,2013-04-23 18:30:00,
2013-04-23 11:35:00,86.9,30.2,29.97,NE,45,10.0,13.2,13,0.00,,,-99.99,FreeWX-Wi 1.02,2013-04-23 18:35:00,
2013-04-23 11:40:00,87.8,30.7,29.97,NE,45,9.0,12.3,13,0.00,,,-99.99,FreeWX-Wi 1.02,2013-04-23 18:40:00,
2013-04-23 11:45:00,88.2,31.1,29.97,NE,46,9.0,15.0,13,0.00,,,-99.99,FreeWX-Wi 1.02,2013-04-23 18:45:00,
2013-04-23 11:50:00,87.6,30.7,29.97,NE,44,8.0,12.8,13,0.00,,,-99.99,FreeWX-Wi 1.02,2013-04-23 18:50:00,
2013-04-23 11:55:00,87.8,30.7,29.97,NE,46,8.0,15.0,13,0.00,,,-99.99,FreeWX-Wi 1.02,2013-04-23 18:55:00,
2013-04-23 12:00:00,88.9,31.6,29.97,NE,49,8.0,10.5,13,0.00,,,-99.99,FreeWX-Wi 1.02,2013-04-23 19:00:00,
2013-04-23 12:05:00,88.5,31.5,29.94,NE,46,8.0,11.4,13,0.00,,,-99.99,FreeWX-Wi 1.02,2013-04-23 19:05:00,
2013-04-23 12:10:00,89.2,32.0,29.94,NE,47,8.0,10.5,13,0.00,,,-99.99,FreeWX-Wi 1.02,2013-04-23 19:10:00,
2013-04-23 12:15:00,88.9,31.6,29.94,NE,47,8.0,13.6,13,0.00,,,-99.99,FreeWX-Wi 1.02,2013-04-23 19:15:00,
2013-04-23 12:20:00,88.5,31.5,29.94,NE,48,8.0,15.9,13,0.00,,,-99.99,FreeWX-Wi 1.02,2013-04-23 19:20:00,
2013-04-23 12:25:00,88.9,31.6,29.94,NE,45,8.0,10.5,13,0.00,,,-99.99,FreeWX-Wi 1.02,2013-04-23 19:25:00,
2013-04-23 12:30:00,89.2,32.0,29.94,NE,43,8.0,11.0,13,0.00,,,-99.99,FreeWX-Wi 1.02,2013-04-23 19:30:00,
2013-04-23 12:35:00,89.8,30.4,29.94,NE,45,8.0,10.1,12,0.00,,,-99.99,FreeWX-Wi 1.02,2013-04-23 19:35:00,
2013-04-23 12:40:00,91.0,31.3,29.94,NE,51,7.0,10.1,12,0.00,,,-99.99,FreeWX-Wi 1.02,2013-04-23 19:40:00,
2013-04-23 12:45:00,92.1,32.2,29.94,ENE,61,7.0,8.3,12,0.00,,,-99.99,FreeWX-Wi 1.02,2013-04-23 19:45:00,
2013-04-23 12:50:00,92.1,32.2,29.94,ENE,71,6.0,8.3,12,0.00,,,-99.99,FreeWX-Wi 1.02,2013-04-23 19:50:00,
2013-04-23 12:55:00,92.5,32.5,29.94,ENE,75,6.0,11.0,12,0.00,,,-99.99,FreeWX-Wi 1.02,2013-04-23 19:55:00,
2013-04-23 13:00:00,93.0,32.9,29.94,East,82,6.0,8.3,12,0.00,,,-99.99,FreeWX-Wi 1.02,2013-04-23 20:00:00,
2013-04-23 13:05:00,93.2,30.9,29.94,East,86,6.0,8.1,11,0.00,,,-99.99,FreeWX-Wi 1.02,2013-04-23 20:05:00,
2013-04-23 13:10:00,93.6,31.1,29.94,East,87,6.0,7.6,11,0.00,,,-99.99,FreeWX-Wi 1.02,2013-04-23 20:10:00,
2013-04-23 13:15:00,93.7,31.3,29.94,East,85,5.0,8.7,11,0.00,,,-99.99,FreeWX-Wi 1.02,2013-04-23 20:15:00,
2013-04-23 13:20:00,93.4,30.9,29.94,East,84,5.0,8.7,11,0.00,,,-99.99,FreeWX-Wi 1.02,2013-04-23 20:20:00,
2013-04-23 13:25:00,93.0,32.9,29.94,East,79,5.0,8.3,12,0.00,,,-99.99,FreeWX-Wi 1.02,2013-04-23 20:25:00,
2013-04-23 13:30:00,92.3,32.4,29.94,ENE,73,5.0,8.7,12,0.00,,,-99.99,FreeWX-Wi 1.02,2013-04-23 20:30:00,
2013-04-23 13:35:00,93.4,30.9,29.94,ENE,75,4.0,6.7,11,0.00,,,-99.99,FreeWX-Wi 1.02,2013-04-23 20:35:00,
2013-04-23 13:40:00,94.6,32.0,29.94,ENE,77,4.0,5.8,11,0.00,,,-99.99,FreeWX-Wi 1.02,2013-04-23 20:40:00,
2013-04-23 13:45:00,93.4,30.9,29.94,ENE,76,4.0,5.8,11,0.00,,,-99.99,FreeWX-Wi 1.02,2013-04-23 20:45:00,
2013-04-23 13:50:00,93.7,31.3,29.94,ENE,77,3.0,8.7,11,0.00,,,-99.99,FreeWX-Wi 1.02,2013-04-23 20:50:00,
2013-04-23 13:55:00,94.8,38.1,29.94,East,82,3.0,8.3,14,0.00,,,-99.99,FreeWX-Wi 1.02,2013-04-23 20:55:00,
2013-04-23 14:00:00,93.9,31.5,29.94,ENE,74,3.0,5.8,11,0.00,,,-99.99,FreeWX-Wi 1.02,2013-04-23 21:00:00,
2013-04-23 14:05:00,94.3,31.6,29.91,ENE,65,3.0,6.3,11,0.00,,,-99.99,FreeWX-Wi 1.02,2013-04-23 21:05:00,
2013-04-23 14:10:00,95.4,38.7,29.91,ENE,69,4.0,8.7,14,0.00,,,-99.99,FreeWX-Wi 1.02,2013-04-23 21:10:00,
2013-04-23 14:15:00,94.3,37.8,29.91,East,84,4.0,7.2,14,0.00,,,-99.99,FreeWX-Wi 1.02,2013-04-23 21:15:00,
2013-04-23 14:20:00,94.8,38.1,29.91,East,90,3.0,7.6,14,0.00,,,-99.99,FreeWX-Wi 1.02,2013-04-23 21:20:00,
2013-04-23 14:25:00,95.4,38.7,29.91,ESE,110,4.0,10.5,14,0.00,,,-99.99,FreeWX-Wi 1.02,2013-04-23 21:25:00,
2013-04-23 14:30:00,94.8,38.1,29.91,SE,127,5.0,10.5,14,0.00,,,-99.99,FreeWX-Wi 1.02,2013-04-23 21:30:00,
2013-04-23 14:35:00,95.4,38.7,29.91,SE,134,5.0,6.7,14,0.00,,,-99.99,FreeWX-Wi 1.02,2013-04-23 21:35:00,
2013-04-23 14:40:00,95.5,38.7,29.91,SE,140,4.0,8.3,14,0.00,,,-99.99,FreeWX-Wi 1.02,2013-04-23 21:40:00,
2013-04-23 14:45:00,95.5,38.7,29.91,SE,141,5.0,7.6,14,0.00,,,-99.99,FreeWX-Wi 1.02,2013-04-23 21:45:00,
2013-04-23 14:50:00,95.7,38.8,29.91,SSE,153,4.0,7.2,14,0.00,,,-99.99,FreeWX-Wi 1.02,2013-04-23 21:50:00,
2013-04-23 14:55:00,95.5,38.7,29.91,SSE,164,4.0,6.3,14,0.00,,,-99.99,FreeWX-Wi 1.02,2013-04-23 21:55:00,
2013-04-23 15:00:00,96.1,39.2,29.91,SSE,166,3.0,6.3,14,0.00,,,-99.99,FreeWX-Wi 1.02,2013-04-23 22:00:00,
2013-04-23 15:05:00,96.3,39.2,29.91,SSE,160,3.0,6.3,14,0.00,,,-99.99,FreeWX-Wi 1.02,2013-04-23 22:05:00,
2013-04-23 15:10:00,95.4,38.7,29.91,SSE,158,3.0,7.6,14,0.00,,,-99.99,FreeWX-Wi 1.02,2013-04-23 22:10:00,
2013-04-23 15:15:00,95.4,38.7,29.91,SE,141,3.0,8.1,14,0.00,,,-99.99,FreeWX-Wi 1.02,2013-04-23 22:15:00,
2013-04-23 15:20:00,95.2,38.5,29.91,SE,135,2.0,6.3,14,0.00,,,-99.99,FreeWX-Wi 1.02,2013-04-23 22:20:00,
2013-04-23 15:25:00,95.4,38.7,29.91,ESE,122,3.0,6.7,14,0.00,,,-99.99,FreeWX-Wi 1.02,2013-04-23 22:25:00,
2013-04-23 15:30:00,95.0,38.3,29.88,ESE,121,3.0,6.3,14,0.00,,,-99.99,FreeWX-Wi 1.02,2013-04-23 22:30:00,
2013-04-23 15:35:00,94.3,37.8,29.88,ESE,118,2.0,4.9,14,0.00,,,-99.99,FreeWX-Wi 1.02,2013-04-23 22:35:00,
2013-04-23 15:40:00,93.4,30.9,29.88,ESE,104,2.0,5.4,11,0.00,,,-99.99,FreeWX-Wi 1.02,2013-04-23 22:40:00,
2013-04-23 15:45:00,94.8,38.1,29.88,ESE,103,2.0,6.3,14,0.00,,,-99.99,FreeWX-Wi 1.02,2013-04-23 22:45:00,
2013-04-23 15:50:00,96.1,39.2,29.88,ESE,103,3.0,8.7,14,0.00,,,-99.99,FreeWX-Wi 1.02,2013-04-23 22:50:00,
2013-04-23 15:55:00,96.1,39.2,29.88,East,94,3.0,8.7,14,0.00,,,-99.99,FreeWX-Wi 1.02,2013-04-23 22:55:00,
2013-04-23 16:00:00,95.9,39.0,29.88,East,87,4.0,8.3,14,0.00,,,-99.99,FreeWX-Wi 1.02,2013-04-23 23:00:00,
2013-04-23 16:05:00,94.8,38.1,29.88,East,81,4.0,5.8,14,0.00,,,-99.99,FreeWX-Wi 1.02,2013-04-23 23:05:00,
2013-04-23 16:10:00,93.6,37.2,29.88,East,79,4.0,8.3,14,0.00,,,-99.99,FreeWX-Wi 1.02,2013-04-23 23:10:00,
2013-04-23 16:15:00,94.3,37.8,29.88,ENE,73,4.0,4.0,14,0.00,,,-99.99,FreeWX-Wi 1.02,2013-04-23 23:15:00,
2013-04-23 16:20:00,93.9,37.4,29.88,ENE,63,3.0,6.3,14,0.00,,,-99.99,FreeWX-Wi 1.02,2013-04-23 23:20:00,
2013-04-23 16:25:00,93.7,37.2,29.88,ENE,57,3.0,11.9,14,0.00,,,-99.99,FreeWX-Wi 1.02,2013-04-23 23:25:00,
2013-04-23 16:30:00,92.1,32.2,29.88,NE,49,4.0,11.0,12,0.00,,,-99.99,FreeWX-Wi 1.02,2013-04-23 23:30:00,
2013-04-23 16:35:00,93.2,30.9,29.88,NE,52,4.0,10.5,11,0.00,,,-99.99,FreeWX-Wi 1.02,2013-04-23 23:35:00,
2013-04-23 16:40:00,94.1,37.6,29.88,ENE,57,4.0,5.4,14,0.00,,,-99.99,FreeWX-Wi 1.02,2013-04-23 23:40:00,
2013-04-23 16:45:00,93.9,37.4,29.88,NE,50,4.0,11.0,14,0.00,,,-99.99,FreeWX-Wi 1.02,2013-04-23 23:45:00,
2013-04-23 16:50:00,92.7,32.5,29.88,NE,45,5.0,10.1,12,0.00,,,-99.99,FreeWX-Wi 1.02,2013-04-23 23:50:00,
2013-04-23 16:55:00,92.3,32.4,29.88,NE,45,5.0,8.3,12,0.00,,,-99.99,FreeWX-Wi 1.02,2013-04-23 23:55:00,
2013-04-23 17:00:00,91.8,31.8,29.88,NE,45,4.0,8.3,12,0.00,,,-99.99,FreeWX-Wi 1.02,2013-04-24 00:00:00,
2013-04-23 17:05:00,91.6,31.8,29.88,NNE,33,4.0,9.2,12,0.00,,,-99.99,FreeWX-Wi 1.02,2013-04-24 00:05:00,
2013-04-23 17:10:00,91.8,31.8,29.88,NNE,26,5.0,8.3,12,0.00,,,-99.99,FreeWX-Wi 1.02,2013-04-24 00:10:00,
2013-04-23 17:15:00,92.7,32.5,29.88,NNE,33,5.0,8.7,12,0.00,,,-99.99,FreeWX-Wi 1.02,2013-04-24 00:15:00,
2013-04-23 17:20:00,91.9,32.0,29.88,NE,38,5.0,11.4,12,0.00,,,-99.99,FreeWX-Wi 1.02,2013-04-24 00:20:00,
2013-04-23 17:25:00,92.1,32.2,29.88,NE,38,5.0,6.3,12,0.00,,,-99.99,FreeWX-Wi 1.02,2013-04-24 00:25:00,
2013-04-23 17:30:00,91.4,31.6,29.88,NE,44,5.0,8.3,12,0.00,,,-99.99,FreeWX-Wi 1.02,2013-04-24 00:30:00,
2013-04-23 17:35:00,90.3,30.7,29.85,NE,47,5.0,10.1,12,0.00,,,-99.99,FreeWX-Wi 1.02,2013-04-24 00:35:00,
2013-04-23 17:40:00,87.8,30.7,29.85,NE,37,5.0,8.7,13,0.00,,,-99.99,FreeWX-Wi 1.02,2013-04-24 00:40:00,
2013-04-23 17:45:00,87.8,30.7,29.85,NNE,31,5.0,10.5,13,0.00,,,-99.99,FreeWX-Wi 1.02,2013-04-24 00:45:00,
2013-04-23 17:50:00,87.6,30.7,29.85,NNE,24,5.0,8.1,13,0.00,,,-99.99,FreeWX-Wi 1.02,2013-04-24 00:50:00,
2013-04-23 17:55:00,87.3,30.4,29.85,NNE,16,5.0,9.6,13,0.00,,,-99.99,FreeWX-Wi 1.02,2013-04-24 00:55:00,
2013-04-23 18:00:00,86.7,30.0,29.85,North,9,5.0,6.3,13,0.00,,,-99.99,FreeWX-Wi 1.02,2013-04-24 01:00:00,
2013-04-23 18:05:00,86.7,30.0,29.85,North,6,5.0,6.3,13,0.00,,,-99.99,FreeWX-Wi 1.02,2013-04-24 01:05:00,
2013-04-23 18:10:00,86.4,29.7,29.85,North,5,5.0,8.1,13,0.00,,,-99.99,FreeWX-Wi 1.02,2013-04-24 01:10:00,
2013-04-23 18:15:00,86.0,29.5,29.85,North,6,4.0,8.1,13,0.00,,,-99.99,FreeWX-Wi 1.02,2013-04-24 01:15:00,
2013-04-23 18:20:00,86.0,29.5,29.85,North,7,4.0,8.1,13,0.00,,,-99.99,FreeWX-Wi 1.02,2013-04-24 01:20:00,
2013-04-23 18:25:00,85.5,28.9,29.85,North,11,5.0,9.2,13,0.00,,,-99.99,FreeWX-Wi 1.02,2013-04-24 01:25:00,
2013-04-23 18:30:00,85.1,28.8,29.85,NNE,14,5.0,8.1,13,0.00,,,-99.99,FreeWX-Wi 1.02,2013-04-24 01:30:00,
2013-04-23 18:35:00,84.7,28.4,29.85,NNE,18,5.0,6.3,13,0.00,,,-99.99,FreeWX-Wi 1.02,2013-04-24 01:35:00,
2013-04-23 18:40:00,84.6,28.2,29.85,NNE,22,5.0,8.1,13,0.00,,,-99.99,FreeWX-Wi 1.02,2013-04-24 01:40:00,
2013-04-23 18:45:00,84.2,28.0,29.85,NNE,21,5.0,7.2,13,0.00,,,-99.99,FreeWX-Wi 1.02,2013-04-24 01:45:00,
2013-04-23 18:50:00,83.8,29.5,29.85,NNE,22,5.0,6.3,14,0.00,,,-99.99,FreeWX-Wi 1.02,2013-04-24 01:50:00,
2013-04-23 18:55:00,83.8,29.5,29.85,NNE,20,5.0,8.7,14,0.00,,,-99.99,FreeWX-Wi 1.02,2013-04-24 01:55:00,
2013-04-23 19:00:00,83.5,29.3,29.85,NNE,20,5.0,7.6,14,0.00,,,-99.99,FreeWX-Wi 1.02,2013-04-24 02:00:00,
2013-04-23 19:05:00,83.1,28.9,29.85,NNE,18,5.0,7.6,14,0.00,,,-99.99,FreeWX-Wi 1.02,2013-04-24 02:05:00,
2013-04-23 19:10:00,82.6,28.6,29.85,NNE,17,5.0,8.3,14,0.00,,,-99.99,FreeWX-Wi 1.02,2013-04-24 02:10:00,
2013-04-23 19:21:00,81.7,27.9,29.85,NNE,17,5.0,5.8,14,0.00,,,-99.99,FreeWX-Wi 1.02,2013-04-24 02:21:00,
2013-04-23 19:26:00,81.3,27.5,29.85,NNE,19,5.0,8.1,14,0.00,,,-99.99,FreeWX-Wi 1.02,2013-04-24 02:26:00,
2013-04-23 19:31:00,81.1,27.5,29.85,NNE,21,5.0,6.3,14,0.00,,,-99.99,FreeWX-Wi 1.02,2013-04-24 02:31:00,
2013-04-23 19:36:00,80.6,27.0,29.85,NNE,23,4.0,7.6,14,0.00,,,-99.99,FreeWX-Wi 1.02,2013-04-24 02:36:00,
2013-04-23 19:41:00,80.1,28.2,29.85,NNE,24,4.0,4.9,15,0.00,,,-99.99,FreeWX-Wi 1.02,2013-04-24 02:41:00,
2013-04-23 19:46:00,79.7,28.0,29.85,NNE,26,4.0,5.8,15,0.00,,,-99.99,FreeWX-Wi 1.02,2013-04-24 02:46:00,
2013-04-23 19:51:00,79.2,27.5,29.85,NNE,27,3.0,4.0,15,0.00,,,-99.99,FreeWX-Wi 1.02,2013-04-24 02:51:00,
2013-04-23 19:56:00,78.4,27.0,29.85,NNE,28,3.0,4.9,15,0.00,,,-99.99,FreeWX-Wi 1.02,2013-04-24 02:56:00,
2013-04-23 20:01:00,77.9,26.6,29.85,NNE,29,3.0,5.8,15,0.00,,,-99.99,FreeWX-Wi 1.02,2013-04-24 03:01:00,
2013-04-23 20:06:00,78.1,26.6,29.85,NNE,30,3.0,5.8,15,0.00,,,-99.99,FreeWX-Wi 1.02,2013-04-24 03:06:00,
2013-04-23 20:11:00,77.9,26.6,29.85,NNE,32,3.0,4.0,15,0.00,,,-99.99,FreeWX-Wi 1.02,2013-04-24 03:11:00,
2013-04-23 20:16:00,77.4,26.1,29.85,NNE,33,3.0,4.9,15,0.00,,,-99.99,FreeWX-Wi 1.02,2013-04-24 03:16:00,
2013-04-23 20:21:00,77.2,25.9,29.85,NE,34,3.0,4.9,15,0.00,,,-99.99,FreeWX-Wi 1.02,2013-04-24 03:21:00,
2013-04-23 20:31:00,77.9,26.6,29.88,NNE,33,3.0,7.6,15,0.00,,,-99.99,FreeWX-Wi 1.02,2013-04-24 03:31:00,
2013-04-23 20:36:00,77.4,26.1,29.88,NNE,33,4.0,6.3,15,0.00,,,-99.99,FreeWX-Wi 1.02,2013-04-24 03:36:00,
2013-04-23 20:41:00,77.2,25.9,29.88,NNE,33,4.0,6.3,15,0.00,,,-99.99,FreeWX-Wi 1.02,2013-04-24 03:41:00,
2013-04-23 20:46:00,77.0,25.9,29.88,NNE,32,4.0,5.8,15,0.00,,,-99.99,FreeWX-Wi 1.02,2013-04-24 03:46:00,
2013-04-23 20:51:00,77.2,25.9,29.88,NNE,31,4.0,8.3,15,0.00,,,-99.99,FreeWX-Wi 1.02,2013-04-24 03:51:00,
2013-04-23 20:56:00,76.8,25.7,29.88,NNE,31,4.0,7.6,15,0.00,,,-99.99,FreeWX-Wi 1.02,2013-04-24 03:56:00,
2013-04-23 21:01:00,77.2,25.9,29.88,NNE,29,4.0,8.3,15,0.00,,,-99.99,FreeWX-Wi 1.02,2013-04-24 04:01:00,
2013-04-23 21:06:00,77.5,26.2,29.88,NNE,26,5.0,8.3,15,0.00,,,-99.99,FreeWX-Wi 1.02,2013-04-24 04:06:00,
2013-04-23 21:11:00,77.7,26.4,29.88,NNE,24,5.0,8.1,15,0.00,,,-99.99,FreeWX-Wi 1.02,2013-04-24 04:11:00,
2013-04-23 21:16:00,77.2,25.9,29.88,NNE,21,5.0,8.1,15,0.00,,,-99.99,FreeWX-Wi 1.02,2013-04-24 04:16:00,
2013-04-23 21:21:00,77.0,25.9,29.88,NNE,19,5.0,6.3,15,0.00,,,-99.99,FreeWX-Wi 1.02,2013-04-24 04:21:00,
2013-04-23 21:26:00,76.1,25.2,29.88,NNE,17,4.0,5.4,15,0.00,,,-99.99,FreeWX-Wi 1.02,2013-04-24 04:26:00,
2013-04-23 21:31:00,75.2,24.4,29.88,NNE,19,4.0,8.1,15,0.00,,,-99.99,FreeWX-Wi 1.02,2013-04-24 04:31:00,
2013-04-23 21:36:00,73.8,24.8,29.88,NNE,25,3.0,3.0,16,0.00,,,-99.99,FreeWX-Wi 1.02,2013-04-24 04:36:00,
2013-04-23 21:41:00,72.9,24.1,29.88,ENE,66,2.0,2.2,16,0.00,,,-99.99,FreeWX-Wi 1.02,2013-04-24 04:41:00,
2013-04-23 21:46:00,72.1,23.5,29.88,SSE,168,1.0,2.2,16,0.00,,,-99.99,FreeWX-Wi 1.02,2013-04-24 04:46:00,
2013-04-23 21:51:00,71.6,23.0,29.88,South,181,1.0,0.0,16,0.00,,,-99.99,FreeWX-Wi 1.02,2013-04-24 04:51:00,
2013-04-23 21:56:00,71.4,24.3,29.88,North,-999,0.0,0.0,17,0.00,,,-99.99,FreeWX-Wi 1.02,2013-04-24 04:56:00,
2013-04-23 22:01:00,71.1,24.1,29.88,North,-999,0.0,2.7,17,0.00,,,-99.99,FreeWX-Wi 1.02,2013-04-24 05:01:00,
2013-04-23 22:06:00,70.2,23.4,29.88,North,-999,0.0,0.0,17,0.00,,,-99.99,FreeWX-Wi 1.02,2013-04-24 05:06:00,
2013-04-23 22:11:00,70.0,23.2,29.88,North,-999,0.0,0.0,17,0.00,,,-99.99,FreeWX-Wi 1.02,2013-04-24 05:11:00,
2013-04-23 22:16:00,69.4,22.8,29.88,North,-999,0.0,0.0,17,0.00,,,-99.99,FreeWX-Wi 1.02,2013-04-24 05:16:00,
2013-04-23 22:21:00,69.1,22.5,29.88,North,-999,0.0,3.1,17,0.00,,,-99.99,FreeWX-Wi 1.02,2013-04-24 05:21:00,
2013-04-23 22:26:00,68.7,22.1,29.88,North,-999,0.0,2.7,17,0.00,,,-99.99,FreeWX-Wi 1.02,2013-04-24 05:26:00,
2013-04-23 22:31:00,68.2,21.7,29.88,North,-999,0.0,3.6,17,0.00,,,-99.99,FreeWX-Wi 1.02,2013-04-24 05:31:00,
2013-04-23 22:36:00,68.0,21.6,29.88,North,-999,0.0,2.7,17,0.00,,,-99.99,FreeWX-Wi 1.02,2013-04-24 05:36:00,
2013-04-23 22:41:00,67.6,21.2,29.88,North,-999,0.0,2.2,17,0.00,,,-99.99,FreeWX-Wi 1.02,2013-04-24 05:41:00,
2013-04-23 22:46:00,67.3,21.0,29.88,North,-999,0.0,2.7,17,0.00,,,-99.99,FreeWX-Wi 1.02,2013-04-24 05:46:00,
2013-04-23 22:51:00,67.1,20.8,29.88,North,-999,0.0,4.0,17,0.00,,,-99.99,FreeWX-Wi 1.02,2013-04-24 05:51:00,
2013-04-23 22:56:00,66.4,20.3,29.88,North,-999,0.0,0.0,17,0.00,,,-99.99,FreeWX-Wi 1.02,2013-04-24 05:56:00,
2013-04-23 23:01:00,66.0,21.4,29.88,North,-999,0.0,0.0,18,0.00,,,-99.99,FreeWX-Wi 1.02,2013-04-24 06:01:00,
2013-04-23 23:06:00,66.0,21.4,29.88,North,-999,0.0,0.0,18,0.00,,,-99.99,FreeWX-Wi 1.02,2013-04-24 06:06:00,
2013-04-23 23:11:00,66.2,20.1,29.88,North,-999,0.0,3.1,17,0.00,,,-99.99,FreeWX-Wi 1.02,2013-04-24 06:11:00,
2013-04-23 23:16:00,65.8,21.2,29.88,North,-999,0.0,3.1,18,0.00,,,-99.99,FreeWX-Wi 1.02,2013-04-24 06:16:00,
2013-04-23 23:21:00,65.7,21.0,29.88,North,-999,0.0,2.2,18,0.00,,,-99.99,FreeWX-Wi 1.02,2013-04-24 06:21:00,
2013-04-23 23:26:00,65.5,20.8,29.88,North,-999,0.0,2.7,18,0.00,,,-99.99,FreeWX-Wi 1.02,2013-04-24 06:26:00,
2013-04-23 23:31:00,65.3,20.7,29.88,North,-999,0.0,2.7,18,0.00,,,-99.99,FreeWX-Wi 1.02,2013-04-24 06:31:00,
2013-04-23 23:36:00,65.3,20.7,29.88,South,178,1.0,3.1,18,0.00,,,-99.99,FreeWX-Wi 1.02,2013-04-24 06:36:00,
2013-04-23 23:41:00,65.1,20.5,29.88,North,-999,0.0,2.7,18,0.00,,,-99.99,FreeWX-Wi 1.02,2013-04-24 06:41:00,
2013-04-23 23:46:00,65.1,20.5,29.88,North,-999,0.0,2.7,18,0.00,,,-99.99,FreeWX-Wi 1.02,2013-04-24 06:46:00,
2013-04-23 23:51:00,64.9,20.5,29.88,North,-999,0.0,2.7,18,0.00,,,-99.99,FreeWX-Wi 1.02,2013-04-24 06:51:00,
2013-04-23 23:56:00,64.6,20.1,29.88,North,-999,0.0,0.0,18,0.00,,,-99.99,FreeWX-Wi 1.02,2013-04-24 06:56:00,